Wind_Speed
13 13 14 15 16 17 18 19 20 17 17 15 14 13 10 7 6 6 6 5 5 8 7 5 5 6 5 3 3 3 4 3 5 5 4 19 12 16 2 6 4 4 3 12 30
13 14 16 16 17 18 19 20 21 19 19 17 15 14 10 7 6 8 7 9 6 10 7 10 5 6 2 3 2 4 3 8 6 9 7 8 13 17 8 5 3 2 3 27 23
14 15 16 17 18 19 19 20 21 20 20 18 14 13 7 6 1 5 2 12 9 7 8 10 9 3 4 2 4 5 6 5 6 14 11 8 8 1 12 3 8 10 17 17 20
14 16 16 17 18 20 20 20 21 21 20 19 13 10 5 3 2 0 5 13 10 7 8 2 3 2 2 3 2 4 7 10 14 18 4 6 7 6 6 7 15 13 19 13 14
14 16 17 18 19 20 20 21 21 22 20 19 12 7 3 2 6 3 7 13 11 11 9 3 3 3 3 4 6 4 7 9 12 4 7 7 9 6 7 7 16 18 18 14 12
15 16 17 18 19 20 21 21 22 22 19 18 10 7 2 3 3 5 11 12 11 13 6 6 5 3 5 3 1 5 13 11 3 6 5 5 5 5 1 14 20 19 18 15 16
16 17 17 18 20 21 22 23 23 21 18 14 6 5 1 9 4 6 10 9 10 15 4 9 7 3 3 9 2 7 6 8 2 2 4 3 4 8 9 13 18 11 6 5 15
18 20 19 20 21 23 25 25 24 20 15 7 3 2 6 5 10 10 10 6 8 11 13 12 18 5 3 3 8 6 5 4 8 4 5 5 4 0 8 15 15 15 9 13 20
21 22 21 21 22 25 26 28 24 12 4 1 2 1 8 2 8 12 11 7 13 13 15 18 4 3 3 3 5 5 3 6 9 4 3 3 2 8 14 16 13 10 12 7 14
24 25 23 22 23 26 28 29 8 4 3 2 3 3 6 5 9 16 16 12 5 5 3 1 4 1 3 4 4 5 2 5 8 5 5 1 8 6 15 15 13 10 15 17 21
25 26 26 23 22 25 28 8 4 3 1 6 3 4 7 10 11 11 20 6 3 4 2 3 3 7 9 9 7 5 4 8 7 8 1 4 3 2 13 15 13 8 7 12 7
25 26 28 24 21 22 12 3 2 4 8 10 17 14 25 16 5 6 19 6 5 5 2 4 8 13 6 8 8 8 7 6 8 7 4 8 7 12 3 7 14 14 7 5 4
25 26 28 25 19 7 12 11 13 12 2 8 8 7 7 10 8 9 12 6 4 5 5 7 9 3 6 10 8 6 4 6 6 4 1 6 5 7 2 5 9 10 9 9 11
25 26 26 29 6 14 7 20 16 14 3 7 5 8 6 8 5 12 21 7 4 11 8 7 14 15 14 7 5 5 10 5 6 4 2 6 4 2 5 6 11 13 14 14 12
26 26 23 19 14 6 12 16 15 3 3 2 4 5 9 10 4 7 21 4 9 7 6 9 4 3 5 10 6 10 6 7 4 3 2 4 4 6 4 8 13 19 13 14 18
28 25 25 9 13 10 17 11 4 4 6 5 4 6 7 5 5 4 7 3 6 4 7 9 8 4 7 12 9 4 2 6 5 3 4 5 5 5 5 6 5 3 8 12 15
30 24 25 18 5 2 16 4 4 3 5 3 2 4 6 7 8 5 7 7 6 3 5 6 11 9 8 7 4 5 6 4 5 5 6 3 2 7 5 1 5 9 7 5 5
30 24 16 17 11 6 4 5 4 6 7 5 7 5 4 5 6 5 8 7 7 3 3 3 8 10 4 10 8 5 8 6 5 3 6 4 3 5 3 10 4 6 6 10 8
27 13 9 12 9 9 5 3 7 6 4 7 8 0 4 6 5 8 10 14 13 11 9 6 8 3 4 5 9 5 3 7 6 2 3 2 1 7 8 13 5 9 9 8 6
20 9 8 6 13 10 4 5 5 2 6 5 1 3 6 8 1 5 7 9 12 18 8 8 6 15 19 5 5 10 5 3 3 2 4 5 2 5 6 3 6 4 4 5 5
5 4 5 20 17 5 3 6 5 4 8 6 4 5 2 1 2 1 5 7 18 15 16 7 5 19 3 4 6 3 1 4 5 6 5 2 5 6 10 10 10 6 7 3 8
8 2 12 26 4 2 2 3 6 5 7 6 4 6 6 1 2 4 4 1 11 19 11 13 7 8 12 5 6 8 10 6 5 6 3 5 5 2 4 10 11 9 11 9 7
3 3 7 13 3 2 5 5 6 11 8 5 5 3 5 1 3 3 5 7 8 4 7 8 4 1 10 7 6 3 6 4 5 4 5 6 5 3 2 9 3 9 10 6 8
1 4 4 4 1 2 3 5 5 7 9 11 9 5 5 3 4 6 6 8 15 9 6 8 4 9 9 7 2 5 7 2 7 4 5 6 5 4 4 10 8 6 3 7 7
2 2 1 3 4 6 1 4 6 7 5 2 7 6 7 3 5 6 6 8 7 4 6 4 2 3 5 3 1 2 5 7 2 5 6 7 13 17 15 10 8 8 11 10 13
3 3 5 4 5 5 2 3 3 8 5 9 3 14 8 7 9 8 6 2 6 7 6 4 3 1 4 4 5 3 10 3 14 18 4 9 2 8 8 9 8 8 15 18 12
7 6 3 5 6 3 2 8 9 11 6 7 10 8 7 9 8 9 6 5 5 4 4 3 2 3 3 4 4 3 4 3 3 2 6 5 8 11 8 11 15 12 13 19 13
Wind_Direction
13 10 7 6 2 358 359 357 354 352 348 342 332 332 326 301 278 263 234 187 149 165 163 162 187 216 269 274 231 93 76 210 228 181 193 130 152 198 207 157 260 191 161 152 159
6 2 360 359 355 354 356 354 354 351 348 343 337 334 329 318 307 249 246 175 188 186 173 188 206 201 256 230 243 108 126 221 223 210 188 166 182 178 186 144 273 140 92 141 143
1 357 355 353 350 348 351 349 351 348 345 343 343 340 340 345 291 246 275 174 179 195 195 211 252 199 203 175 228 194 217 196 245 247 249 191 257 269 136 183 212 172 146 153 138
357 353 349 348 347 346 345 344 345 345 342 341 343 347 355 3 187 255 150 162 173 184 190 240 261 220 237 231 204 276 253 251 256 251 221 191 168 229 158 200 182 152 148 154 149
354 348 346 346 344 341 340 339 339 339 337 339 343 356 355 339 249 211 158 172 182 173 185 182 255 182 254 292 342 243 279 306 276 272 285 162 165 207 222 140 135 142 149 157 157
349 347 344 342 340 338 334 333 331 331 330 333 340 349 1 284 202 188 175 173 172 170 194 190 231 207 278 280 118 294 306 294 10 31 26 166 162 127 225 118 147 152 160 165 169
347 345 341 340 337 334 331 329 325 324 320 324 338 354 274 241 227 171 172 180 184 184 192 231 265 137 2 324 323 277 307 323 260 177 213 119 162 190 110 139 144 118 74 313 181
346 344 339 335 335 330 328 326 322 314 309 310 347 14 257 300 220 165 155 179 197 207 228 271 277 219 164 291 338 338 34 1 262 191 158 93 258 3 115 111 95 89 59 43 339
350 343 335 331 332 328 328 327 320 310 289 337 42 41 272 115 189 199 182 189 204 230 248 276 358 206 336 69 357 4 250 259 308 134 174 147 177 130 112 122 121 125 102 14 294
351 344 335 328 329 327 329 330 354 78 94 41 277 325 265 232 210 196 203 213 184 190 343 359 48 27 22 81 217 200 176 291 267 296 71 124 251 239 130 149 143 133 146 170 214
348 344 339 327 326 326 331 336 356 2 134 210 197 266 286 275 200 181 204 191 221 90 183 295 76 235 214 207 244 269 216 233 265 260 355 222 283 160 130 128 134 162 201 198 173
346 343 340 329 320 323 334 21 235 264 301 247 248 249 258 266 304 186 192 158 151 194 210 346 248 240 229 242 238 261 267 245 279 255 148 271 300 74 61 135 157 166 190 251 160
346 342 340 331 317 323 326 334 332 357 292 287 220 207 213 173 222 206 156 174 158 196 208 194 242 329 216 267 270 266 240 277 270 316 234 25 317 120 70 140 175 209 142 197 185
342 340 341 337 321 334 297 340 358 350 21 272 224 245 182 148 251 187 181 148 222 206 224 240 255 253 272 243 225 248 254 250 286 32 232 120 258 133 172 156 188 210 190 195 192
338 336 334 336 313 313 328 333 339 54 347 247 198 178 158 153 153 223 174 123 190 202 137 243 275 263 261 254 219 237 257 257 247 207 68 313 81 269 148 208 205 199 175 211 225
332 331 326 327 306 268 334 331 360 44 254 316 160 170 108 211 234 93 150 93 182 216 255 247 273 253 249 273 242 249 278 47 35 65 11 256 144 268 192 206 210 161 223 149 139
325 322 311 296 249 171 341 33 54 162 320 290 262 163 173 186 218 136 152 181 180 172 271 318 283 280 257 273 305 90 60 353 352 5 227 337 65 245 273 350 226 195 203 139 188
322 318 297 267 262 275 359 58 185 233 262 315 354 317 190 171 232 173 148 188 249 149 110 198 314 235 246 208 191 196 153 156 201 212 260 324 258 263 253 272 167 156 159 100 116
326 320 278 262 211 202 82 126 208 219 315 356 334 343 262 234 175 191 177 201 208 182 176 179 259 260 284 298 162 239 174 198 144 78 52 253 253 322 344 24 66 119 107 120 141
327 314 260 198 165 142 83 225 237 275 2 359 312 47 15 339 177 163 200 204 214 204 170 222 274 273 278 299 261 159 166 64 19 188 285 315 214 201 237 153 103 60 154 161 136
335 344 320 162 146 58 175 235 289 315 10 3 327 284 251 325 301 208 221 265 212 209 189 170 154 268 71 195 221 75 226 66 119 138 169 213 266 222 203 155 143 111 133 332 25
344 13 149 153 80 182 215 240 329 324 329 289 259 240 231 18 302 319 240 301 307 218 159 202 171 233 244 243 197 190 211 158 130 254 182 151 260 306 156 133 109 138 141 134 142
338 273 200 188 132 255 279 261 247 277 271 274 323 331 320 142 321 234 297 299 330 296 192 179 210 274 321 347 349 185 191 173 106 80 199 144 246 15 119 102 70 76 90 103 140
21 13 337 14 26 124 324 279 273 279 286 247 259 283 271 296 183 274 286 303 330 325 331 93 129 170 198 208 180 333 316 244 134 121 208 210 179 238 249 141 130 122 85 138 104
63 331 28 332 337 332 283 279 283 296 251 9 318 216 236 261 331 272 284 310 311 332 357 69 150 158 161 204 152 281 300 2 326 241 156 221 170 197 195 153 179 126 144 146 167
55 28 344 291 302 349 313 260 268 302 241 293 297 304 238 194 188 272 295 257 267 334 15 11 274 84 350 26 37 13 325 349 332 308 204 124 245 182 116 142 126 160 163 168 170
358 347 112 284 324 343 336 350 343 5 308 327 312 280 298 263 204 205 210 224 233 317 329 49 114 70 282 352 26 18 267 227 243 291 196 159 206 152 137 149 159 173 189 174 170
Height
805 803 800 797 795 793 789 786 783 779 776 773 771 769 768 767 767 767 765 760 761 764 765 767 767 767 768 768 763 763 804 814 798 797 783 771 773 765 758 766 763 761 762 760 769
805 802 799 797 795 792 788 786 782 779 775 772 770 767 765 764 764 761 754 756 759 762 764 765 766 766 772 769 767 780 807 795 771 764 771 760 758 764 767 768 768 765 763 765 770
805 803 800 797 794 792 788 786 782 778 774 771 769 766 764 763 764 752 751 754 758 760 762 763 763 766 774 767 768 773 788 769 761 754 747 760 757 748 761 776 766 764 767 769 771
804 803 800 797 794 791 788 785 781 778 775 771 768 766 764 764 774 750 751 753 757 759 761 762 763 770 773 775 762 776 762 759 750 740 750 756 747 753 746 746 741 753 762 768 771
804 802 799 796 793 790 787 784 781 777 774 771 768 766 765 766 757 750 751 754 755 758 759 762 766 767 776 767 764 768 757 748 742 742 744 740 748 750 750 740 746 753 760 768 773
803 801 798 795 792 789 786 783 779 776 773 770 768 767 767 770 747 748 750 752 754 756 758 760 761 759 768 768 773 759 756 750 745 744 741 742 750 745 744 747 751 755 760 766 771
803 800 797 794 791 787 784 781 778 775 772 770 768 767 768 757 747 747 749 751 752 754 755 755 755 760 762 771 756 756 766 752 746 742 745 736 759 757 750 748 756 768 775 780 766
802 799 795 792 789 785 782 778 774 771 769 769 768 768 764 747 747 746 749 751 752 754 754 753 753 755 761 758 763 769 773 787 746 739 740 743 778 753 753 756 771 773 777 779 792
801 798 794 791 786 782 778 775 770 767 767 767 769 769 763 749 747 746 747 749 750 752 753 752 751 760 761 781 797 787 798 784 764 739 743 746 764 755 758 764 772 767 761 778 789
800 797 793 789 785 780 776 771 767 766 767 768 770 773 753 747 741 742 746 747 750 751 755 754 765 777 785 797 819 798 793 784 780 748 747 758 757 749 757 767 766 762 761 768 771
801 796 791 787 784 780 774 770 772 771 768 764 762 758 746 739 740 741 744 747 749 754 776 765 786 796 787 782 774 776 782 784 764 745 753 758 761 750 757 760 769 771 765 766 774
800 794 790 785 782 779 776 776 774 775 776 754 750 750 743 743 749 740 743 755 759 777 768 782 793 767 764 766 771 772 779 780 759 743 756 756 764 766 768 766 764 765 767 766 765
798 794 788 783 779 778 777 776 774 771 780 753 739 739 737 738 747 744 741 749 760 773 775 789 766 753 763 766 773 770 773 770 770 749 751 761 771 767 768 768 770 768 769 771 762
797 793 788 781 781 778 775 773 771 770 799 764 745 728 727 731 744 729 733 745 758 772 771 776 752 757 760 767 762 785 754 757 759 770 792 760 813 776 775 773 773 766 774 770 763
796 792 789 786 782 780 777 772 770 771 813 736 732 711 715 733 730 731 726 739 762 762 767 772 754 758 764 757 747 766 745 755 752 770 776 774 800 787 770 778 769 765 770 766 757
791 789 785 784 782 777 775 772 772 803 809 745 721 729 734 732 729 727 734 734 740 757 755 759 739 745 747 737 738 733 745 765 774 788 813 782 791 793 781 763 755 755 758 760 762
786 784 781 781 777 775 774 774 809 817 755 747 741 730 736 742 739 737 750 759 771 786 786 765 754 739 735 750 736 743 781 819 818 823 820 779 789 782 761 749 750 751 751 747 751
782 778 775 773 774 775 776 794 812 777 768 740 742 735 748 739 739 740 754 768 757 760 783 788 791 745 727 741 753 755 776 816 825 826 813 780 792 777 755 748 735 741 748 745 756
777 773 770 766 770 775 784 809 797 778 753 753 747 749 752 738 739 745 755 754 745 752 780 786 778 729 727 726 735 752 773 758 791 797 813 798 777 761 749 744 744 744 748 755 759
776 771 764 763 767 774 791 796 778 755 754 755 765 754 768 758 749 753 752 737 738 732 737 758 781 733 725 721 724 735 737 776 799 807 814 807 789 794 772 765 748 751 755 757 757
776 775 758 762 768 780 796 790 766 751 754 764 766 766 758 760 757 757 751 732 720 724 729 747 763 745 734 743 751 745 754 763 777 796 816 822 801 763 753 758 753 758 760 771 772
782 781 762 763 783 789 788 770 761 756 754 759 751 754 751 749 755 753 747 736 713 706 740 731 758 773 754 725 719 732 744 756 793 791 795 799 795 753 754 750 751 755 752 757 763
794 783 766 764 789 790 779 768 762 760 758 757 755 744 739 746 757 748 737 716 717 717 726 726 762 781 765 746 729 731 733 740 762 776 788 801 796 751 750 757 757 764 763 760 755
793 789 776 771 772 774 777 775 770 751 751 747 749 744 746 747 748 749 742 722 715 711 709 714 750 754 774 758 743 742 731 729 752 784 775 776 774 764 760 760 766 765 765 756 753
793 792 791 796 783 782 776 772 769 767 749 743 747 745 748 753 753 754 740 734 718 713 710 723 744 734 738 732 729 734 735 737 746 747 759 752 758 750 752 759 765 761 764 758 749
802 804 800 796 786 781 774 770 765 758 755 752 755 741 737 752 750 754 745 741 735 721 723 727 744 730 738 729 731 738 730 731 722 720 738 744 747 738 752 758 757 760 756 750 762
805 803 805 798 790 786 780 777 768 763 753 748 746 744 742 736 729 729 729 730 726 727 731 736 742 757 759 742 739 757 735 730 729 722 730 744 732 731 750 753 755 760 754 747 759